Regional Weather Roundup
Issued by NWS Charleston, WV

Home | Current Version | Previous Version | Text Only | Print | Product List | Glossary On
Versions: 1 2 3 4 5 6 7 8 9 10 11 12 13 14 15 16 17 18 19 20 21 22 23 24 25 26 27 28 29 30 31 32 33 34 35 36 37 38 39 40 41 42 43 44 45 46 47 48 49 50
000
ASUS41 KRLX 252110
RWRRLX
West Virginia Regional Weather Roundup
National Weather Service Charleston WV
500 PM EDT MON MAY 25 2015

Note: "fair" indicates few or no clouds below 12,000 feet with no
significant weather and/or obstructions to visibility.

WVZ003-252200-
Northern Panhandle of West Virginia

CITY           SKY/WX    TMP DP  RH WIND       PRES   REMARKS
WHEELING       NOT AVBL
$$

WVZ009-252200-
Northwest West Virginia

CITY           SKY/WX    TMP DP  RH WIND       PRES   REMARKS
PARKERSBURG    PTSUNNY   82  61  48 W6        30.17F
$$

WVZ006-252200-
Western West Virginia

CITY           SKY/WX    TMP DP  RH WIND       PRES   REMARKS
HUNTINGTON     PTSUNNY   83  62  49 W7        30.15F
$$

WVZ015-252200-
West Central West Virginia

CITY           SKY/WX    TMP DP  RH WIND       PRES   REMARKS
CHARLESTON     PTSUNNY   83  60  45 W8        30.15F
$$

WVZ022-031-252200-
North Central West Virginia

CITY           SKY/WX    TMP DP  RH WIND       PRES   REMARKS
CLARKSBURG     MOSUNNY   85  56  37 SW12      30.16F
MORGANTOWN     MOSUNNY   85  53  33 SW7       30.16F
$$

WVZ025-035-042-045-252200-
Southern West Virginia

CITY           SKY/WX    TMP DP  RH WIND       PRES   REMARKS
BECKLEY        SUNNY     83  48  29 VRB5      30.24F
LOGAN            N/A     82  59  44 S5        30.16F
BLUEFIELD      SUNNY     83  50  31 W6        30.27F
LEWISBURG      SUNNY     81  49  32 SW5       30.26S
$$

WVZ047-252200-
Northern Mountains of West Virginia

CITY           SKY/WX    TMP DP  RH WIND       PRES   REMARKS
ELKINS         SUNNY     84  51  31 NW6       30.20F
$$

WVZ052-252200-
Eastern Panhandle of West Virginia

CITY           SKY/WX    TMP DP  RH WIND       PRES   REMARKS
MARTINSBURG    SUNNY     83  62  49 S10G18    30.17F
PETERSBURG     SUNNY     83  55  38 SE9       30.15F
$$



USA.gov is the U.S. government's official web portal to all federal, state and local government web resources and services.